Location: Caltech
(34.1382°N, 118.1253°W)
Time: 05:15:17
(UTC-07:00)

ERBS - Visible Passes

Search period start: 22 June 2017 00:00
Search period end: 02 July 2017 00:00
Orbit: 424 x 446 km, 57.0° (Epoch: 21 June)

Date Brightness Start Highest point End Pass type
(mag) Time Alt. Az. Time Alt. Az. Time Alt. Az.
23 Jun 5.3 23:41:14 10° NNW 23:42:02 16° NNW 23:42:02 16° NNW visible
24 Jun 4.7 22:59:33 10° NNW 23:01:14 20° N 23:01:14 20° N visible
25 Jun 4.6 22:18:08 10° N 22:20:19 16° NE 22:20:29 16° NE visible
26 Jun 5.0 21:37:30 10° NNE 21:38:08 10° NE 21:38:47 10° NE visible
26 Jun 4.8 23:11:48 10° NW 23:13:03 21° NW 23:13:03 21° NW visible
27 Jun 3.3 22:29:50 10° NNW 22:32:23 45° N 22:32:23 45° N visible
28 Jun 3.3 21:48:02 10° NNW 21:51:09 33° NE 21:51:47 31° ENE visible
29 Jun 4.2 21:06:27 10° N 21:09:04 20° NE 21:11:13 12° E visible
29 Jun 4.5 22:42:51 10° WNW 22:44:31 20° W 22:44:31 20° W visible
30 Jun 2.8 22:00:30 10° NW 22:03:46 46° SW 22:04:01 45° SW visible
01 Jul 2.2 21:18:25 10° NW 21:21:49 89° NE 21:23:35 26° SE visible
